Back to catalog

THORAD AGENA D DEB

AliveSSO
NORAD 5150·DEBRIS·🇺🇸 United States

Launched Apr 8, 1970 from Vandenberg Space Force Base

Loading…

Next Passes (next 24 hours)

TLE

FreshSource: Space-Track

Epoch: Sep 14, 2026, 05:23 UTC

1 05150U 70025JT  26257.22430612  .00001253  00000-0  93389-3 0  9993
2 05150  99.4665 344.8723 0088233 214.7142 144.8241 13.95096458822633

Track THORAD AGENA D DEB in real time with AllMySat

Download on the App Store